Погода в Оссоре

Россия / Камчатский край     59°15′05″N   163°04′28″E
темп.,
°C
ветер,
м/с
пор.,
м/с
влажн.,
%
обл.,
%
осадки,
мм/ч
давл.,
гПа
погр.,
м
4 августа, ср
ср400:00+6сз346788 0.0 100482
03:00+7зсз337294 0.0 1003113
06:00+7сз237876 0.0 1003147
09:00+9зсз236992 0.0 1003725
12:00+9сз227193 0.2 1003762
15:00+10з1266100 0.6 10021023
18:00+9сз0179100 1.6 1003444
21:00+7ссз3390100 1.8 1004136
5 августа, чт
чт500:00+6сз338985 1.9 1004113
03:00+5ссз338885 0.0 1004105
06:00+6сз338659 0.0 1005142
09:00+8ссз347374 0.0 1004835
12:00+11ссз575855 0.1 10031370
15:00+11ссз795934 0.0 10011366
18:00+11ссз71057100 0.0 9991326
21:00+9зсз61058100 0.0 995777
6 августа, пт
пт600:00+6зюз3588100 2.4 992301
03:00+5зюз3395100 5.9 989143
06:00+6сз4594100 9.4 991202
09:00+8ссз4794100 4.1 994462
12:00+9в3589100 7.8 997473
15:00+9вюв81084100 1.7 1002823
18:00+10вюв5781100 2.9 1006743
21:00+10в71084100 1.6 1009444
7 августа, сб
сб700:00+9св478783 2.3 1011257
03:00+8св489199 1.5 1013286
06:00+10св10148890 3.6 1014785
09:00+10св71189100 1.3 1016791
12:00+10св6108899 2.9 1017683
15:00+11св588565 1.6 1018717
18:00+12св577551 2.8 1018826
21:00+9с348211 0.1 1019154
8 августа, вс
вс800:00+8ссз3383100 0.1 101954
03:00+8зсз337899 0.0 101840
06:00+8сз337576 0.0 101842
09:00+13сз336482 0.0 1018231
12:00+13ссз4770100 0.2 1017929
15:00+12ссз5973100 0.4 1017759
18:00+13ссз586497 0.4 1017650
21:00+12сз356340 0.0 1017242